Vorticity
1 2 2 3 3 4 6 7 6 2 2 5 6 4 2 1 1 -1 4 8 1 2 6 11 10 6 7 7 8 11 15 14 4
3 2 2 4 5 5 5 7 8 6 2 5 4 5 3 4 5 4 2 1 1 2 2 7 8 10 7 7 9 10 12 14 15
3 5 4 3 3 6 5 5 5 4 5 5 2 5 2 3 3 4 6 3 2 2 3 2 9 5 8 6 8 11 10 9 10
3 4 4 3 3 6 5 4 5 6 7 4 2 4 5 4 3 4 6 6 3 3 4 7 6 9 6 5 6 6 11 8 9
2 3 3 4 3 4 3 5 7 8 5 1 4 6 8 3 5 6 5 5 3 5 6 5 7 8 7 5 8 9 10 10 9
2 2 3 3 4 4 3 6 5 9 2 5 1 7 5 7 6 6 4 2 2 3 2 8 8 5 5 6 6 8 6 8 12
4 2 3 4 4 4 5 6 7 9 7 -1 3 8 5 5 3 2 2 3 4 5 13 16 10 5 5 5 5 4 6 4 5
4 3 3 4 4 5 5 6 5 1 -0 6 8 4 5 4 2 1 3 8 16 20 19 16 9 2 15 10 5 4 3 4 4
4 4 4 3 5 5 5 7 2 4 4 7 4 4 3 1 3 10 21 19 10 13 17 18 14 16 18 17 14 4 5 4 3
4 4 4 4 5 5 7 5 2 3 6 5 4 4 4 10 17 11 6 5 7 9 13 17 18 15 21 13 17 12 4 4 4
5 4 4 5 6 6 6 3 3 4 4 4 3 4 12 12 4 2 3 4 6 6 8 16 7 9 7 18 6 21 11 3 3
4 4 7 7 6 5 4 3 4 5 5 3 6 16 7 3 4 4 5 6 6 10 6 6 14 -0 11 11 13 9 15 14 4
9 8 6 5 5 5 4 4 3 6 4 7 15 6 4 9 8 4 3 3 6 8 11 11 6 11 -2 7 12 10 9 14 17
5 5 5 5 5 4 4 5 5 4 8 14 3 8 6 4 2 5 7 7 7 7 8 11 16 7 12 -1 -0 11 9 9 10
6 4 5 6 5 5 6 5 4 10 11 5 7 3 3 2 10 9 -2 -0 5 6 7 3 5 16 15 6 7 -1 5 8 11
4 4 6 5 4 6 5 5 9 10 4 7 1 4 7 9 5 3 10 11 12 7 8 8 6 6 10 18 11 5 2 2 7
4 5 6 4 6 6 5 9 9 7 5 3 5 11 5 5 4 -2 -0 7 1 2 7 4 7 7 5 4 13 15 12 4 0
5 7 4 6 5 7 9 8 5 3 3 10 8 3 2 0 3 5 5 7 8 9 7 5 4 8 15 14 10 6 16 10 13
7 5 6 5 8 8 6 5 3 5 8 6 -1 2 4 8 10 5 5 2 9 18 13 14 11 7 2 6 8 13 16 11 9
6 6 7 9 9 5 3 4 6 6 4 1 3 5 8 2 5 7 5 8 13 2 5 0 3 9 6 5 9 14 16 11 10
Height
5875 5873 5871 5869 5867 5865 5863 5861 5859 5857 5855 5853 5851 5848 5846 5843 5841 5839 5837 5835 5832 5830 5827 5825 5822 5819 5816 5813 5810 5807 5805 5804 5804
5874 5872 5870 5868 5866 5863 5861 5859 5856 5854 5852 5850 5848 5846 5843 5841 5838 5836 5833 5831 5829 5826 5823 5821 5818 5815 5812 5809 5806 5802 5800 5799 5797
5872 5870 5868 5865 5863 5861 5859 5857 5854 5852 5849 5847 5845 5843 5840 5838 5835 5833 5830 5827 5824 5821 5818 5816 5813 5810 5807 5804 5801 5799 5796 5793 5791
5869 5867 5865 5862 5860 5858 5856 5853 5851 5849 5847 5844 5842 5840 5837 5834 5832 5829 5826 5823 5819 5816 5813 5810 5808 5805 5802 5799 5797 5793 5791 5789 5786
5865 5863 5861 5859 5857 5855 5853 5851 5848 5846 5843 5841 5838 5836 5833 5830 5827 5824 5821 5818 5815 5811 5808 5805 5802 5799 5796 5793 5791 5789 5786 5785 5783
5862 5860 5857 5855 5853 5851 5849 5847 5844 5842 5839 5837 5834 5831 5828 5825 5822 5819 5816 5813 5810 5807 5802 5799 5795 5792 5790 5787 5786 5784 5782 5780 5779
5857 5856 5853 5851 5849 5847 5844 5842 5839 5837 5834 5832 5829 5826 5823 5820 5816 5813 5810 5807 5803 5799 5795 5791 5787 5784 5782 5781 5781 5779 5777 5776 5774
5853 5851 5849 5847 5844 5842 5839 5837 5834 5832 5829 5826 5823 5820 5817 5813 5810 5806 5802 5798 5794 5790 5787 5784 5779 5776 5775 5775 5775 5773 5771 5770 5769
5848 5846 5844 5841 5839 5836 5834 5831 5829 5826 5823 5820 5817 5813 5810 5806 5802 5798 5794 5790 5786 5782 5778 5775 5772 5769 5767 5767 5767 5767 5766 5764 5763
5842 5840 5838 5835 5833 5830 5828 5826 5823 5821 5817 5814 5811 5807 5803 5799 5795 5791 5787 5783 5779 5774 5770 5767 5764 5762 5760 5759 5759 5758 5758 5758 5757
5837 5835 5832 5830 5827 5824 5822 5820 5817 5813 5810 5807 5804 5800 5796 5792 5788 5784 5780 5776 5772 5768 5764 5760 5757 5755 5754 5752 5751 5750 5750 5750 5749
5831 5829 5827 5824 5821 5818 5816 5813 5809 5806 5803 5800 5796 5792 5789 5785 5781 5777 5773 5769 5764 5761 5757 5754 5751 5748 5745 5744 5743 5742 5741 5741 5742
5826 5823 5821 5818 5815 5812 5809 5805 5802 5799 5796 5792 5788 5785 5781 5778 5774 5770 5766 5762 5757 5753 5749 5746 5743 5740 5739 5736 5734 5733 5731 5730 5731
5819 5817 5815 5811 5809 5806 5802 5799 5795 5791 5787 5783 5780 5776 5773 5769 5765 5761 5758 5754 5750 5745 5741 5737 5734 5732 5729 5727 5726 5724 5722 5721 5719
5813 5810 5807 5804 5801 5798 5795 5791 5787 5782 5778 5775 5771 5767 5764 5759 5755 5751 5747 5744 5739 5735 5732 5728 5724 5721 5719 5717 5715 5714 5713 5711 5709
5805 5802 5799 5796 5793 5790 5787 5782 5778 5774 5770 5766 5762 5758 5753 5749 5745 5740 5735 5732 5728 5723 5720 5716 5712 5709 5706 5704 5703 5701 5701 5699 5699
5797 5794 5791 5788 5785 5781 5777 5773 5769 5764 5760 5756 5752 5747 5743 5738 5733 5728 5724 5719 5715 5710 5706 5702 5699 5695 5692 5690 5688 5687 5685 5684 5683
5789 5786 5783 5779 5776 5772 5768 5764 5760 5756 5751 5746 5741 5736 5732 5727 5720 5714 5709 5704 5699 5695 5691 5687 5683 5679 5676 5674 5672 5669 5667 5666 5665
5780 5778 5774 5770 5767 5762 5759 5755 5750 5745 5740 5735 5730 5725 5719 5714 5709 5700 5693 5687 5681 5676 5673 5669 5665 5661 5657 5654 5651 5649 5648 5648 5646
5772 5769 5765 5761 5757 5753 5748 5744 5739 5733 5728 5723 5718 5712 5705 5699 5693 5688 5678 5670 5662 5654 5650 5647 5643 5639 5636 5631 5628 5625 5626 5626 5627